Temperature
9 9 9 9 9 9 9 9 9 9 9 9 9 9 9 9 9 9 9 10 10 10 10 10 10 10 10 10 10 11 11 11 11 11 11 11 11 11 11 11 11 11 11
8 8 8 8 8 8 8 8 8 8 8 8 9 9 9 9 9 9 9 9 9 10 10 10 9 9 10 10 10 10 10 10 10 11 11 11 11 11 11 11 11 11 11
7 7 7 7 8 8 8 8 8 8 8 8 8 8 8 8 8 8 8 9 9 9 9 9 9 9 9 9 10 10 10 10 10 10 10 10 10 10 10 11 11 11 10
7 7 7 7 7 7 7 7 7 7 7 7 7 7 7 8 8 8 8 8 8 9 9 9 9 9 9 9 9 9 9 9 10 10 10 10 10 10 10 10 10 10 10
6 6 6 6 6 6 7 7 7 7 7 7 7 7 7 7 7 7 7 8 8 8 8 8 8 9 9 9 9 9 9 9 9 9 9 10 10 10 10 10 10 10 10
5 5 5 6 6 6 6 6 6 6 6 6 6 6 6 6 7 7 7 7 7 7 7 8 8 8 8 8 8 8 8 8 9 9 9 9 9 9 9 9 9 10 9
5 5 5 5 5 5 5 5 5 5 6 5 6 6 6 6 6 6 6 6 6 6 7 7 7 8 8 8 8 8 8 8 8 8 8 9 9 9 9 9 9 9 9
4 4 4 4 4 4 4 5 5 5 5 5 5 5 5 5 5 5 6 6 6 6 6 6 7 7 7 7 7 7 7 8 8 8 8 8 8 8 9 9 8 8 9
3 3 3 4 4 4 4 4 4 4 4 4 4 4 4 4 4 5 5 5 5 6 6 6 6 6 6 6 7 7 7 7 7 7 7 8 8 8 8 8 8 8 8
3 3 3 3 3 3 3 3 3 3 3 3 3 3 4 4 3 4 4 4 5 5 5 5 5 5 5 6 6 6 6 7 7 7 7 7 7 7 8 8 8 8 8
2 2 2 2 2 2 2 3 3 3 3 3 3 3 3 3 3 3 3 4 4 4 4 5 5 5 5 5 5 6 6 6 6 6 6 6 6 7 7 7 7 7 7
1 1 1 1 1 1 2 2 2 2 2 2 2 2 2 2 2 2 2 2 3 4 4 4 4 4 5 5 5 5 5 5 6 6 6 6 6 6 6 7 7 7 7
1 1 1 1 1 1 1 1 1 1 1 1 1 1 1 1 2 1 1 1 2 2 3 3 4 4 4 4 4 4 4 5 5 5 5 5 5 6 6 6 6 7 7
-0 -0 -0 -0 -0 0 0 0 0 0 1 1 1 1 1 1 1 1 1 1 0 1 2 2 3 3 3 3 3 4 4 4 4 4 4 5 5 5 5 6 6 6 6
-1 -1 -1 -1 -1 -1 -1 -1 -1 -0 -0 -0 -0 -0 0 0 0 0 0 0 0 -0 0 1 1 2 2 2 3 3 3 3 3 4 4 4 4 5 5 5 5 5 6
-2 -2 -1 -1 -1 -1 -1 -1 -1 -1 -1 -1 -1 -1 -1 -1 -0 -0 -0 -0 -0 -0 -1 0 1 1 1 2 2 2 2 3 3 3 3 4 4 4 4 4 5 5 5
-3 -2 -2 -2 -2 -2 -2 -2 -2 -1 -1 -1 -1 -1 -1 -1 -1 -1 -1 -1 -1 -1 -1 -0 -0 0 1 1 1 1 2 2 2 2 3 3 3 3 4 4 4 4 4
-4 -3 -3 -3 -3 -2 -2 -2 -2 -2 -2 -2 -2 -2 -2 -2 -2 -2 -2 -2 -1 -2 -2 -1 -1 -0 -0 0 0 1 1 1 1 2 2 2 2 3 3 3 3 4 4
-4 -4 -4 -3 -3 -3 -3 -3 -3 -3 -3 -3 -2 -2 -2 -2 -2 -2 -2 -2 -2 -2 -2 -2 -2 -1 -1 -1 -0 -0 0 0 1 1 1 1 2 2 2 3 3 3 3
-5 -5 -4 -4 -4 -4 -4 -3 -4 -3 -3 -3 -3 -3 -3 -3 -3 -3 -3 -3 -3 -3 -3 -3 -3 -2 -2 -1 -1 -1 -1 -0 0 1 1 1 1 1 2 2 2 2 2
-6 -6 -5 -5 -5 -4 -4 -4 -4 -4 -4 -4 -4 -4 -3 -3 -3 -3 -3 -3 -3 -3 -3 -3 -3 -3 -3 -3 -2 -2 -1 -1 -0 -0 0 0 0 1 1 1 2 2 2
-7 -6 -6 -6 -5 -5 -5 -5 -5 -5 -5 -5 -4 -4 -4 -4 -4 -4 -4 -4 -4 -4 -4 -4 -4 -4 -3 -3 -3 -3 -2 -2 -2 -1 -1 -0 -0 0 1 1 1 1 1
-7 -7 -7 -7 -6 -6 -6 -6 -6 -6 -5 -5 -5 -5 -5 -5 -5 -4 -4 -4 -4 -4 -4 -4 -4 -4 -4 -3 -3 -3 -3 -3 -2 -2 -2 -1 -1 -0 -0 0 0 0 0
-8 -8 -8 -7 -7 -7 -7 -7 -7 -6 -6 -6 -6 -6 -6 -5 -5 -5 -5 -5 -5 -4 -4 -4 -4 -4 -4 -4 -4 -4 -3 -3 -3 -3 -3 -2 -1 -1 -1 -1 -1 -0 -0
-9 -9 -8 -8 -8 -8 -8 -8 -7 -7 -7 -7 -6 -6 -6 -6 -6 -6 -6 -5 -5 -5 -5 -5 -5 -5 -5 -5 -5 -4 -4 -4 -4 -3 -3 -3 -2 -2 -2 -2 -1 -1 -1
-9 -9 -9 -9 -9 -8 -8 -8 -8 -8 -8 -7 -7 -7 -7 -6 -6 -6 -6 -6 -6 -5 -5 -5 -5 -5 -5 -5 -5 -5 -5 -5 -5 -4 -4 -4 -3 -3 -3 -2 -2 -2 -2
Wind_Speed
3 4 4 5 5 5 5 4 5 5 5 5 4 4 3 3 2 1 1 2 2 1 2 4 4 4 4 4 3 3 3 3 4 4 4 4 5 6 7 8 8 8 8
3 3 3 3 3 4 3 3 3 3 3 3 3 3 3 2 1 1 1 0 1 1 1 2 3 3 3 4 4 3 4 4 4 4 4 4 4 5 6 7 7 8 8
3 3 2 2 2 3 3 3 3 3 2 3 3 3 2 2 1 1 1 0 0 1 1 2 3 3 3 3 4 3 4 5 4 4 4 4 4 5 6 7 7 7 8
3 3 2 1 2 3 3 2 2 2 2 2 2 2 2 1 1 1 0 0 0 1 2 1 2 3 3 4 3 3 4 5 5 5 4 4 4 5 6 7 7 7 8
3 3 2 1 2 2 2 1 2 1 1 2 2 2 2 1 1 0 0 0 1 1 1 1 1 2 3 3 3 3 3 4 5 5 5 5 4 5 5 7 7 7 8
2 2 1 1 2 1 1 1 1 1 0 1 2 2 2 2 1 1 1 0 0 1 1 1 1 2 2 2 3 3 3 3 4 5 5 5 5 5 6 7 8 8 8
2 2 1 1 1 1 0 1 1 1 1 1 1 2 3 2 1 1 1 0 1 1 1 1 1 1 2 3 3 4 4 3 3 5 5 4 5 4 6 6 8 9 8
3 1 1 0 0 1 1 1 1 1 1 1 1 1 1 2 2 2 2 1 1 2 2 2 1 1 2 3 3 4 4 4 5 6 5 5 4 4 5 6 7 8 9
3 2 1 0 0 1 2 2 1 1 1 1 0 1 1 2 2 2 2 1 1 1 1 2 2 2 2 2 2 3 4 4 5 5 6 6 5 5 4 5 6 8 9
5 4 3 1 1 1 2 2 2 1 2 2 1 1 1 1 1 2 2 2 2 2 2 2 2 2 1 2 2 2 3 3 4 4 5 6 6 6 4 5 4 6 7
4 5 4 3 1 1 2 2 2 2 2 2 2 1 1 1 0 2 3 2 2 2 2 3 2 2 2 2 2 2 3 3 3 4 5 5 5 5 5 5 5 5 6
3 4 5 4 3 2 2 2 3 3 3 2 2 2 1 1 1 1 2 3 3 3 3 2 2 2 3 2 3 4 4 5 5 5 5 5 5 5 6 5 5 6 6
3 3 4 4 4 4 3 3 3 3 3 3 3 3 3 2 2 2 2 2 3 3 2 2 3 3 3 3 3 5 5 5 5 6 6 5 5 6 6 6 6 6 6
4 4 4 5 5 5 4 3 3 4 3 3 4 4 3 3 3 3 3 2 3 3 3 4 2 3 4 4 4 4 5 6 7 7 6 6 6 6 5 5 6 5 6
4 5 4 4 5 5 4 3 4 4 4 4 4 5 4 4 3 3 3 4 4 4 5 4 2 2 4 4 5 4 5 6 7 7 7 7 7 7 6 6 6 6 6
5 5 5 5 5 5 5 4 4 4 4 5 4 5 5 4 4 3 4 4 4 5 5 3 3 3 3 4 6 5 6 7 8 8 8 8 8 7 7 7 6 7 6
6 6 5 5 5 5 5 5 5 5 5 6 5 6 6 5 4 4 4 4 4 4 6 5 3 3 3 3 4 5 6 6 7 9 9 9 8 9 8 8 7 7 6
6 6 6 6 6 6 5 6 6 6 6 7 7 7 7 5 6 5 4 5 5 5 5 6 4 3 4 3 3 3 4 5 6 8 9 9 9 9 9 8 8 7 7
6 7 6 6 6 6 6 6 6 6 7 7 7 8 7 7 7 6 6 6 5 5 5 5 5 3 3 3 2 3 3 3 5 6 8 9 10 9 9 9 8 7 7
6 6 7 6 6 7 7 6 6 6 7 7 7 8 8 8 8 7 7 7 6 5 5 5 5 4 3 2 2 3 3 3 3 5 6 7 8 9 9 9 8 8 8
7 7 7 7 7 6 6 6 6 7 7 7 7 7 8 9 10 9 7 6 6 6 5 5 5 4 4 3 4 3 4 3 3 3 2 4 4 5 6 7 8 8 9
7 7 6 7 7 7 10 11 8 6 6 7 7 6 7 9 10 12 12 11 9 8 7 6 6 6 6 5 4 4 3 3 4 2 2 4 4 4 6 7 8 8 9
7 7 7 6 7 8 12 12 12 7 6 6 6 6 6 7 8 7 9 11 11 13 12 8 8 8 7 6 5 6 6 5 5 3 2 4 3 4 5 7 8 9 9
6 6 7 7 7 9 13 13 13 7 6 6 6 6 7 7 7 7 7 7 8 9 10 9 9 9 8 7 8 7 6 5 3 3 3 4 3 3 4 6 8 8 8
6 6 7 6 7 9 13 13 12 6 5 6 7 6 7 8 11 11 7 7 8 8 10 13 13 12 12 12 9 5 4 4 5 4 3 3 2 2 2 3 7 8 8
6 7 7 7 7 7 12 13 12 5 6 6 6 6 9 9 11 11 7 7 8 7 6 7 8 10 9 10 11 8 6 6 4 3 3 3 2 1 2 2 3 5 5
Wind_Direction
71 60 52 54 50 53 52 43 40 38 35 35 39 44 48 53 57 58 45 39 47 87 155 163 157 152 153 156 161 161 152 154 156 148 137 130 141 137 143 143 141 141 138
86 74 56 46 36 44 51 51 40 36 26 30 35 35 36 50 57 56 58 50 30 24 162 173 170 171 172 171 175 181 181 172 169 168 161 152 154 154 153 151 151 152 149
90 87 70 42 24 37 49 49 41 40 36 29 22 19 24 50 66 44 57 59 320 314 301 220 187 185 190 187 187 189 192 193 180 174 179 172 174 170 170 163 160 161 158
77 82 64 30 32 52 49 42 53 38 31 20 359 348 353 19 50 49 77 18 313 292 294 287 202 190 193 191 190 193 196 192 192 192 184 183 185 182 178 174 171 168 166
77 75 67 39 47 53 44 36 42 38 35 14 346 337 347 347 340 330 95 311 314 309 284 275 246 205 202 200 198 197 197 198 195 196 194 197 199 199 190 186 178 173 168
71 70 54 55 66 67 43 46 57 25 40 3 348 348 336 330 352 355 280 306 340 306 304 315 287 241 236 216 203 204 205 200 203 200 198 206 212 214 198 195 187 179 173
45 65 38 34 55 112 98 56 61 49 17 17 32 358 342 339 355 346 339 22 19 353 4 359 348 248 245 237 226 215 217 215 214 205 195 199 213 221 206 198 192 185 181
19 25 52 93 78 148 131 106 69 58 347 7 79 48 339 328 330 343 349 7 0 10 4 348 341 288 266 248 249 229 221 220 220 210 199 196 205 213 214 204 203 192 188
359 349 343 40 345 179 187 194 174 158 216 268 284 157 177 232 291 305 320 346 354 356 337 335 336 322 295 263 251 234 220 215 221 216 208 204 207 210 218 200 206 199 195
353 346 346 347 339 235 205 212 197 210 196 226 276 299 258 191 217 282 299 321 329 321 309 310 311 305 305 279 259 242 220 222 226 226 221 218 215 218 230 215 213 212 199
348 348 346 346 326 282 244 223 213 212 217 224 227 262 311 331 271 224 260 286 301 292 297 290 285 285 297 293 275 255 239 239 238 238 233 231 227 231 233 233 221 217 207
330 338 338 335 318 295 265 241 223 218 222 230 229 222 222 225 231 235 240 251 267 276 289 285 281 287 293 300 283 268 254 249 243 244 245 241 241 247 246 249 231 223 210
298 302 318 313 308 298 286 265 238 233 229 228 228 234 237 242 224 233 234 253 269 282 278 269 258 273 279 288 290 283 266 253 247 244 246 248 246 251 258 246 246 230 209
282 298 298 297 296 293 291 275 248 241 238 232 238 236 240 243 232 221 221 225 261 274 264 257 265 256 264 272 276 278 272 261 253 250 251 255 248 245 256 255 247 243 219
309 304 297 293 291 287 281 276 253 239 237 235 240 237 238 239 240 233 224 211 217 241 251 242 244 256 272 272 276 274 269 264 260 254 252 256 248 242 247 249 246 249 230
315 311 307 291 288 285 279 270 270 252 240 243 241 239 241 239 239 236 232 232 228 227 248 241 240 271 275 275 275 271 262 258 255 253 252 252 246 239 242 241 244 247 236
316 307 301 298 286 279 278 269 266 263 248 246 244 240 242 237 235 234 231 232 232 229 247 263 255 266 249 259 275 267 261 255 250 249 249 249 247 238 237 240 243 245 236
316 310 303 294 292 287 278 267 264 265 256 250 246 243 246 242 236 234 232 234 235 232 236 254 259 250 249 253 257 259 260 255 251 251 249 249 248 242 239 241 244 234 235
320 317 312 299 292 290 284 273 264 262 261 255 248 244 242 238 237 237 236 236 236 240 233 243 256 249 253 257 267 278 274 259 260 255 252 247 245 243 243 241 233 232 237
319 316 310 304 297 289 284 278 272 264 262 263 256 245 239 235 237 235 237 235 233 231 229 236 251 254 253 254 247 259 275 264 266 259 251 252 252 248 245 236 232 233 236
323 319 315 312 307 297 285 278 271 269 264 264 260 251 246 242 242 241 240 233 227 228 228 232 245 251 245 239 239 244 257 274 275 250 249 251 246 242 239 235 237 233 234
321 320 318 314 311 308 307 302 291 272 268 265 264 262 257 253 251 251 251 246 236 229 229 233 239 241 243 238 238 238 245 258 265 237 242 264 232 243 231 228 233 235 236
320 318 317 315 310 308 312 310 305 296 277 267 263 263 267 262 258 247 252 254 251 248 241 236 237 237 238 231 228 234 235 239 250 240 250 262 240 245 236 235 234 235 240
314 313 312 312 310 312 318 317 312 302 287 272 263 256 256 260 256 254 245 248 250 252 252 243 237 239 237 230 226 234 239 252 273 251 218 246 232 238 244 236 233 236 240
312 311 311 313 313 314 318 318 318 301 291 281 271 264 258 253 258 257 250 248 254 257 260 254 250 248 247 244 235 226 226 236 257 248 209 214 230 253 261 249 235 234 237
308 312 315 315 310 308 314 319 319 303 295 290 282 274 268 263 261 258 248 248 252 255 257 259 257 253 246 241 236 225 219 228 235 236 205 193 204 188 257 260 226 221 228
Height
1535 1535 1535 1535 1536 1536 1536 1536 1537 1537 1537 1538 1538 1539 1539 1540 1540 1541 1542 1543 1543 1544 1545 1545 1546 1547 1548 1548 1549 1550 1551 1552 1553 1554 1554 1555 1556 1557 1558 1559 1560 1560 1561
1533 1533 1533 1533 1533 1533 1534 1534 1534 1535 1535 1536 1536 1537 1537 1537 1538 1539 1540 1541 1542 1542 1543 1543 1544 1545 1546 1547 1547 1548 1549 1550 1551 1552 1553 1554 1555 1556 1556 1557 1558 1559 1560
1530 1531 1531 1531 1531 1531 1531 1531 1532 1532 1533 1533 1534 1534 1535 1535 1536 1537 1537 1538 1539 1540 1541 1541 1542 1543 1544 1545 1546 1546 1547 1548 1549 1550 1551 1552 1553 1554 1555 1556 1557 1558 1559
1528 1528 1528 1528 1528 1529 1529 1529 1529 1529 1530 1531 1531 1531 1532 1532 1533 1534 1535 1535 1536 1537 1538 1539 1539 1540 1541 1542 1543 1544 1545 1546 1546 1547 1548 1549 1551 1552 1553 1554 1555 1557 1558
1525 1526 1526 1526 1526 1526 1526 1526 1526 1527 1527 1527 1528 1528 1529 1529 1530 1531 1532 1532 1533 1535 1535 1536 1537 1537 1538 1539 1540 1541 1542 1543 1544 1545 1546 1547 1548 1550 1551 1552 1553 1555 1556
1522 1523 1523 1523 1523 1523 1523 1523 1523 1524 1524 1524 1525 1525 1526 1526 1526 1527 1528 1529 1530 1531 1532 1533 1534 1534 1535 1536 1537 1538 1539 1540 1541 1542 1543 1544 1546 1547 1548 1550 1551 1552 1554
1519 1520 1520 1520 1520 1520 1520 1520 1520 1521 1521 1521 1522 1522 1522 1523 1523 1524 1525 1526 1527 1528 1529 1530 1530 1531 1532 1533 1534 1535 1536 1537 1538 1539 1540 1541 1543 1544 1546 1547 1548 1549 1551
1516 1516 1516 1516 1516 1517 1517 1517 1517 1517 1518 1518 1519 1519 1519 1521 1520 1520 1521 1522 1523 1524 1525 1526 1527 1528 1529 1530 1531 1532 1533 1534 1535 1536 1537 1538 1540 1541 1543 1544 1545 1546 1548
1512 1513 1513 1513 1513 1513 1514 1514 1514 1515 1515 1516 1516 1517 1517 1516 1517 1517 1517 1518 1519 1521 1522 1523 1523 1524 1525 1526 1527 1528 1530 1531 1532 1533 1534 1535 1537 1538 1539 1541 1542 1543 1545
1509 1510 1510 1510 1510 1510 1510 1510 1511 1511 1512 1512 1513 1513 1514 1514 1515 1514 1514 1515 1516 1517 1518 1519 1520 1520 1522 1522 1523 1525 1526 1527 1528 1530 1531 1532 1533 1535 1536 1538 1539 1540 1541
1506 1506 1506 1506 1506 1506 1507 1507 1507 1508 1508 1508 1509 1509 1510 1510 1511 1511 1510 1511 1512 1513 1514 1515 1516 1517 1518 1519 1519 1521 1522 1523 1524 1526 1527 1528 1530 1531 1532 1534 1535 1537 1538
1502 1502 1502 1502 1502 1502 1503 1503 1503 1504 1504 1504 1505 1505 1506 1506 1507 1507 1507 1507 1508 1509 1510 1511 1512 1513 1514 1515 1516 1517 1518 1519 1520 1521 1523 1524 1526 1527 1528 1529 1531 1532 1534
1497 1498 1498 1498 1498 1498 1499 1499 1499 1499 1500 1500 1501 1501 1502 1502 1503 1504 1504 1504 1504 1505 1506 1507 1508 1508 1509 1510 1511 1512 1513 1514 1515 1517 1518 1519 1521 1522 1524 1525 1526 1528 1529
1494 1493 1493 1493 1494 1494 1494 1495 1495 1495 1495 1496 1496 1497 1498 1498 1499 1500 1501 1501 1501 1501 1501 1501 1503 1504 1505 1506 1507 1508 1509 1509 1511 1512 1513 1514 1516 1517 1518 1520 1522 1523 1525
1489 1489 1489 1489 1489 1489 1490 1490 1490 1490 1491 1491 1492 1492 1493 1493 1494 1495 1496 1497 1498 1497 1496 1497 1498 1499 1500 1501 1502 1503 1503 1505 1506 1507 1508 1509 1510 1512 1513 1515 1517 1518 1520
1485 1485 1484 1484 1484 1484 1485 1485 1485 1485 1485 1486 1487 1487 1487 1488 1489 1490 1491 1492 1493 1493 1492 1492 1493 1494 1495 1496 1497 1498 1498 1500 1501 1502 1503 1504 1505 1507 1508 1510 1511 1513 1514
1481 1480 1480 1479 1479 1479 1479 1480 1480 1480 1480 1481 1481 1482 1482 1483 1483 1484 1485 1486 1487 1488 1487 1486 1488 1489 1490 1491 1492 1492 1493 1494 1495 1496 1497 1498 1499 1501 1503 1504 1506 1507 1508
1477 1476 1475 1475 1474 1474 1474 1474 1474 1474 1475 1475 1475 1476 1476 1477 1478 1478 1479 1480 1481 1482 1482 1481 1482 1484 1485 1486 1486 1487 1488 1488 1489 1490 1491 1492 1494 1495 1497 1499 1500 1501 1503
1473 1472 1471 1470 1469 1469 1469 1469 1469 1468 1469 1469 1469 1470 1471 1472 1472 1473 1473 1474 1475 1476 1477 1477 1476 1478 1479 1480 1480 1481 1482 1483 1483 1484 1486 1486 1488 1489 1491 1493 1494 1496 1497
1469 1468 1467 1466 1465 1464 1464 1463 1463 1463 1463 1463 1464 1464 1465 1466 1466 1467 1468 1468 1469 1470 1471 1471 1471 1472 1473 1474 1475 1475 1476 1477 1477 1478 1479 1480 1482 1483 1485 1487 1488 1490 1491
1465 1464 1462 1461 1460 1460 1459 1458 1458 1458 1458 1458 1458 1458 1459 1460 1460 1461 1462 1463 1463 1464 1464 1465 1465 1466 1467 1468 1469 1470 1470 1471 1471 1473 1473 1475 1476 1477 1479 1481 1482 1483 1485
1461 1460 1458 1457 1456 1455 1454 1454 1453 1453 1452 1452 1452 1452 1453 1454 1455 1455 1456 1457 1458 1458 1458 1459 1460 1460 1461 1463 1464 1465 1465 1465 1465 1467 1468 1468 1470 1471 1473 1474 1476 1477 1479
1458 1456 1454 1453 1451 1450 1450 1449 1448 1448 1447 1446 1446 1447 1447 1448 1449 1449 1450 1451 1451 1452 1454 1455 1454 1455 1456 1458 1459 1459 1459 1460 1460 1462 1463 1462 1464 1465 1467 1469 1470 1471 1473
1454 1452 1451 1449 1447 1446 1445 1444 1443 1442 1442 1441 1441 1441 1441 1442 1443 1443 1444 1444 1445 1446 1447 1448 1449 1449 1451 1452 1453 1454 1454 1454 1455 1456 1458 1457 1458 1459 1461 1463 1464 1466 1467
1451 1449 1447 1446 1444 1442 1441 1440 1439 1438 1437 1436 1436 1436 1436 1436 1437 1438 1438 1438 1438 1439 1441 1442 1443 1443 1445 1446 1447 1448 1448 1449 1448 1450 1452 1452 1452 1454 1455 1456 1459 1460 1462
1448 1446 1444 1442 1440 1439 1438 1436 1436 1434 1432 1432 1431 1431 1431 1431 1432 1432 1432 1432 1432 1433 1434 1435 1436 1437 1438 1439 1440 1441 1442 1443 1443 1444 1445 1447 1447 1449 1449 1450 1452 1454 1456